• Join FlightAware (Why Join?)
  • Login
  • US Flag 
01:46PM EDT


 

Airport Tracker/Info


-or-


 

Live Flight TrackerFlight Track Log ✈ UPS984 ✈ 05-Nov-2013 ✈ KBFI - KGEG

Flight Track Log - Related Links

Times and Time Zones

All times are in EST time to prevent confusion due to time zone crossing. See the UPS984 flight status page for this flight to view local times or setup timezone preferences in your user account.

Time Position Orientation Groundspeed Altitude Reporting Facility
EST Latitude Longitude Course Direction KTS MPH feet Rate Location/Type
09:18AM 47.5136 -122.2880 147° Southeast 165 190 1,200  Level FlightAware ADS-B
09:18AM 47.5045 -122.2790 146° Southeast 181 208 1,700 1,200 Climbing FlightAware ADS-B
09:19AM 47.4927 -122.2660 143° Southeast 209 241 1,800 480 Climbing FlightAware ADS-B
09:19AM 47.4855 -122.2570 140° Southeast 214 246 1,900 1,740 Climbing FlightAware ADS-B
09:19AM 47.4738 -122.2430 141° Southeast 221 254 2,500 2,580 Climbing FlightAware ADS-B
09:19AM 47.4675 -122.2350 139° Southeast 224 258 2,900 3,000 Climbing FlightAware ADS-B
09:19AM 47.4648 -122.2310 135° Southeast 228 262 3,100 3,000 Climbing FlightAware ADS-B
09:19AM 47.4623 -122.2260 126° Southeast 233 268 3,300 3,420 Climbing FlightAware ADS-B
09:19AM 47.4604 -122.2210 119° Southeast 237 273 3,500 3,000 Climbing FlightAware ADS-B
09:20AM 47.4591 -122.2160 111° Southeast 242 278 3,600 2,520 Climbing FlightAware ADS-B
09:20AM 47.4580 -122.2100 105° East 251 289 3,800 2,220 Climbing FlightAware ADS-B
09:20AM 47.4574 -122.2040 98° East 255 293 3,900 2,520 Climbing FlightAware ADS-B
09:20AM 47.4572 -122.1980 93° East 261 300 4,100 3,000 Climbing FlightAware ADS-B
09:20AM 47.4572 -122.1890 90° East 268 308 4,300 2,220 Climbing FlightAware ADS-B
09:20AM 47.4575 -122.1830 86° East 273 314 4,400 2,220 Climbing FlightAware ADS-B
09:20AM 47.4583 -122.1750 82° East 278 320 4,600 2,220 Climbing FlightAware ADS-B
09:20AM 47.4593 -122.1690 76° East 281 323 4,700 2,520 Climbing FlightAware ADS-B
09:20AM 47.4608 -122.1620 72° East 284 327 4,900 3,000 Climbing FlightAware ADS-B
09:20AM 47.4646 -122.1460 71° East 290 334 5,300 2,820 Climbing FlightAware ADS-B
09:20AM 47.4713 -122.1170 71° East 292 336 6,000 3,360 Climbing FlightAware ADS-B
09:21AM 47.4781 -122.0900 70° East 291 335 7,000 3,840 Climbing FlightAware ADS-B
09:21AM 47.4857 -122.0590 70° East 295 339 8,000 3,540 Climbing FlightAware ADS-B
09:21AM 47.4927 -122.0300 70° East 297 342 8,900 3,240 Climbing FlightAware ADS-B
09:21AM 47.4997 -122.0010 70° East 302 348 9,700 2,760 Climbing FlightAware ADS-B
09:22AM 47.5142 -121.9400 71° East 323 372 11,000 2,160 Climbing FlightAware ADS-B
09:22AM 47.5290 -121.8780 71° East 363 418 11,800 2,520 Climbing FlightAware ADS-B
09:23AM 47.5448 -121.8060 72° East 382 440 13,400 3,360 Climbing FlightAware ADS-B
09:23AM 47.5535 -121.7700 70° East 392 451 14,300 3,120 Climbing FlightAware ADS-B
09:23AM 47.5581 -121.7450 75° East 402 463 14,700 2,760 Climbing FlightAware ADS-B
09:23AM 47.5597 -121.7310 80° East 407 468 15,000 3,960 Climbing FlightAware ADS-B
09:24AM 47.5613 -121.7120 83° East 410 472 15,500 3,360 Climbing FlightAware ADS-B
09:24AM 47.5607 -121.6250 91° East 425 489 17,100 3,300 Climbing FlightAware ADS-B
09:25AM 47.5589 -121.5360 92° East 437 503 18,800 3,060 Climbing FlightAware ADS-B
09:25AM 47.5578 -121.4440 91° East 452 520 20,200 2,460 Climbing FlightAware ADS-B
09:26AM 47.5568 -121.3490 91° East 472 543 21,300 3,180 Climbing FlightAware ADS-B
09:26AM 47.5556 -121.2540 91° East 457 526 23,400 3,360 Climbing FlightAware ADS-B
09:27AM 47.5542 -121.1620 91° East 448 516 24,700 1,560 Climbing FlightAware ADS-B
09:27AM 47.5526 -121.0680 91° East 460 529 25,000 240 Climbing FlightAware ADS-B
09:28AM 47.5508 -120.9730 92° East 457 526 25,000  Level FlightAware ADS-B
09:28AM 47.5487 -120.8720 92° East 453 521 25,000  Level FlightAware ADS-B
09:29AM 47.5468 -120.7780 92° East 450 518 25,000  Level FlightAware ADS-B
09:29AM 47.5448 -120.6810 92° East 449 517 25,000  Level FlightAware ADS-B
09:30AM 47.5428 -120.5870 92° East 448 516 25,000  Level FlightAware ADS-B
09:30AM 47.5407 -120.4950 92° East 447 514 25,000  Level FlightAware ADS-B
09:31AM 47.5385 -120.4030 92° East 447 514 25,000  Level FlightAware ADS-B
09:31AM 47.5345 -120.3070 93° East 449 517 25,000  Level FlightAware ADS-B
09:32AM 47.5298 -120.2140 94° East 450 518 25,000  Level FlightAware ADS-B
09:33AM 47.5210 -120.0370 94° East 451 519 25,000  Level FlightAware
09:33AM 47.5139 -119.8850 94° East 454 522 25,000  Level FlightAware ADS-B
09:34AM 47.5080 -119.7670 94° East 455 524 25,000  Level FlightAware ADS-B
09:35AM 47.5019 -119.6440 94° East 455 524 25,000  Level FlightAware ADS-B
09:35AM 47.4966 -119.5420 94° East 455 524 25,000 -600 Level FlightAware ADS-B
09:36AM 47.4890 -119.3910 94° East 439 505 24,200 -960 Descending FlightAware
09:37AM 47.4840 -119.3010 95° East 427 491 23,700 -1,200 Descending FlightAware
09:37AM 47.4780 -119.1890 94° East 415 478 22,800 -960 Descending FlightAware
09:38AM 47.4730 -119.0920 94° East 414 476 22,500 -240 Descending FlightAware
09:39AM 47.4670 -118.9790 94° East 414 476 22,500  Level FlightAware
09:39AM 47.4630 -118.8920 94° East 414 476 22,500  Level FlightAware
09:40AM 47.4610 -118.8350 93° East 414 476 22,500  Level FlightAware
09:41AM 47.4550 -118.7190 94° East 414 476 22,500  Level FlightAware
09:41AM 47.4520 -118.6590 94° East 414 476 22,500  Level FlightAware
09:41AM 47.4500 -118.6020 93° East 414 476 22,500 -5,760 Level FlightAware
09:43AM 47.4272 -118.3458 93° East 369 425 12,300 -4,860 Descending Seattle Center
09:44AM 47.4611 -118.2142 69° East 352 405 11,000 -900 Descending Seattle Center
09:45AM 47.5025 -118.0944 63° Northeast 330 380 10,500 -780 Descending Seattle Center
09:46AM 47.5403 -117.9839 63° Northeast 305 351 9,500 -1,140 Descending Seattle Center
09:47AM 47.5811 -117.8747 61° Northeast 304 350 8,300 -1,260 Descending Seattle Center
09:48AM 47.6242 -117.7697 59° Northeast 300 345 7,000 -1,200 Descending Seattle Center
09:49AM 47.6681 -117.6694 57° Northeast 292 336 5,900 -1,020 Descending Seattle Center
09:50AM 47.7069 -117.5853 56° Northeast 248 285 5,000 -480 Descending Seattle Center
09:51AM 47.7442 -117.5100 54° Northeast 228 262 5,000 -60 Level Seattle Center
09:52AM 47.7742 -117.4469 55° Northeast 192 221 4,900 -540 Descending Seattle Center
09:53AM 47.7458 -117.3914 127° Southeast 172 198 4,000 -480 Descending Seattle Center
09:54AM 47.6983 -117.4172 200° South 173 199 4,000 -300 Level Seattle Center
09:55AM 47.6681 -117.4636 226° Southwest 160 184 3,400 -660 Descending Seattle Center
09:56AM 47.6419 -117.5036 226° Southwest 140 161 2,700 -600 Descending Seattle Center
09:57AM 47.6197 -117.5350 224° Southwest 117 135 2,300 -240 Descending Seattle Center
09:58AM 47.6183 -117.5428 255° West 60 69 2,300  Level Seattle Center